Istanbul, Turkey

7:44 AM +03 on January 18, 2017 (GMT +0300)
Istanbul

Weather History for 17060 - October, 2013

Change the Weather History Date:

Thursday, October 31, 2013

  Actual Average Record
Temperature  
Mean Temperature 60 °F -  
Max Temperature 64 °F 57 °F - ()
Min Temperature 56 °F 47 °F - ()
Degree Days  
Heating Degree Days 5    
Growing Degree Days 10 (Base 50)    
Moisture  
Dew Point 52 °F    
Average Humidity 75    
Maximum Humidity 88    
Minimum Humidity 56    
Precipitation  
Precipitation 0.00 in - - ()
Sea Level Pressure  
Sea Level Pressure 30.21 in    
Wind  
Wind Speed 9 mph ()    
Max Wind Speed 17 mph    
Max Gust Speed -    
Visibility 5.6 miles    
Events      
T = Trace of Precipitation, MM = Missing Value Source: Averaged Metar Reports

Daily Weather History Graph

Daily Weather History Graph

Search for Another Location

Airport or City:

Trip Planner

Search our weather history database for the weather conditions in past years. The results will help you decide how hot, cold, wet, or windy it might be!

Date:

Astronomy

Oct. 31, 2013 Rise Set
Actual Time 6:34 AM EET 5:01 PM EET
Civil Twilight 6:05 AM EET 5:30 PM EET
Nautical Twilight 5:33 AM EET 6:02 PM EET
Astronomical Twilight 5:01 AM EET 6:34 PM EET
Moon 3:02 AM EET (10/31) 3:10 PM EET (10/31)
Length of Visible Light 11h 24m
Length of Day
10h 27m
Waning Crescent, 12% of the Moon is Illuminated
Oct 31
Waning Crescent
Nov 3
New
Nov 10
First Quarter
Nov 17
Full
Nov 25
Last Quarter

Hourly Weather History & Observations

Time (EET) Temp. Dew Point Humidity Pressure Visibility Wind Dir Wind Speed Gust Speed Precip Events Conditions
12:20 AM 57.2 °F 51.8 °F 82% 30.12 in 5.0 mi NNE 9.2 mph - N/A   Unknown
12:50 AM 57.2 °F 51.8 °F 82% 30.12 in - NNE 10.4 mph - N/A   Clear
1:20 AM 57.2 °F 51.8 °F 82% 30.15 in - Variable 6.9 mph - N/A   Clear
1:50 AM 57.2 °F 53.6 °F 88% 30.15 in - NNE 6.9 mph - N/A   Clear
2:00 AM 57 °F 52 °F 79% 30.16 in 6 mi NNE 6.9 mph - -  
2:20 AM 57.2 °F 53.6 °F 88% 30.15 in - NNE 5.8 mph - N/A   Clear
2:50 AM 57.2 °F 53.6 °F 88% 30.15 in - NNE 6.9 mph - N/A   Clear
3:20 AM 57.2 °F 53.6 °F 88% 30.15 in - NNE 8.1 mph - N/A   Clear
3:50 AM 57.2 °F 53.6 °F 88% 30.15 in 3.7 mi NNE 8.1 mph - N/A   Scattered Clouds
4:20 AM 57.2 °F 51.8 °F 82% 30.15 in 4.3 mi NNE 8.1 mph - N/A   Scattered Clouds
4:50 AM 57.2 °F 51.8 °F 82% 30.15 in 4.3 mi NNE 9.2 mph - N/A   Mostly Cloudy
5:20 AM 57.2 °F 51.8 °F 82% 30.15 in 4.3 mi NNE 8.1 mph - N/A   Mostly Cloudy
5:50 AM 57.2 °F 51.8 °F 82% 30.15 in 4.3 mi NNE 6.9 mph - N/A   Mostly Cloudy
6:20 AM 57.2 °F 51.8 °F 82% 30.15 in 3.7 mi North 8.1 mph - N/A   Mostly Cloudy
6:50 AM 57.2 °F 51.8 °F 82% 30.18 in 3.7 mi NNE 6.9 mph - N/A   Mostly Cloudy
7:20 AM 57.2 °F 51.8 °F 82% 30.18 in 3.7 mi NNE 6.9 mph - N/A   Mostly Cloudy
7:50 AM 59.0 °F 53.6 °F 82% 30.21 in 3.7 mi NNE 6.9 mph - N/A   Mostly Cloudy
8:00 AM 58 °F 53 °F 76% 30.21 in 4 mi NNE 6.9 mph - -   Mist
8:20 AM 59.0 °F 53.6 °F 82% 30.21 in 3.7 mi ENE 8.1 mph - N/A   Mostly Cloudy
8:50 AM 60.8 °F 51.8 °F 72% 30.21 in 5.0 mi NE 8.1 mph - N/A   Mostly Cloudy
9:20 AM 60.8 °F 53.6 °F 77% 30.21 in 6.2 mi NNE 8.1 mph - N/A   Mostly Cloudy
9:50 AM 60.8 °F 51.8 °F 72% 30.21 in 6.2 mi NNE 10.4 mph - N/A   Mostly Cloudy
10:20 AM 60.8 °F 53.6 °F 77% 30.21 in 6.2 mi North 12.7 mph - N/A   Mostly Cloudy
10:50 AM 60.8 °F 53.6 °F 77% 30.21 in 6.2 mi NNE 12.7 mph - N/A   Mostly Cloudy
11:20 AM 62.6 °F 53.6 °F 72% 30.21 in 6.2 mi NNE 11.5 mph - N/A   Mostly Cloudy
11:50 AM 62.6 °F 51.8 °F 68% 30.21 in 6.2 mi NE 12.7 mph - N/A   Mostly Cloudy
12:20 PM 64.4 °F 51.8 °F 64% 30.21 in 6.2 mi NNE 13.8 mph - N/A   Mostly Cloudy
12:50 PM 64.4 °F 51.8 °F 64% 30.21 in 6.2 mi NE 13.8 mph - N/A   Mostly Cloudy
1:20 PM 62.6 °F 51.8 °F 68% 30.21 in 6.2 mi NE 15.0 mph - N/A   Mostly Cloudy
1:50 PM 62.6 °F 51.8 °F 68% 30.21 in 6.2 mi NNE 15.0 mph - N/A   Mostly Cloudy
2:00 PM 63 °F 51 °F 56% 30.22 in 6 mi NNE 15.0 mph - -   Mostly Cloudy
2:20 PM 64.4 °F 51.8 °F 64% 30.21 in 6.2 mi NE 11.5 mph - N/A   Mostly Cloudy
2:50 PM 62.6 °F 51.8 °F 68% 30.21 in 6.2 mi NE 13.8 mph - N/A   Mostly Cloudy
3:20 PM 62.6 °F 51.8 °F 68% 30.21 in 6.2 mi NNE 13.8 mph - N/A   Mostly Cloudy
3:50 PM 60.8 °F 50.0 °F 68% 30.21 in 6.2 mi NNE 15.0 mph - N/A   Mostly Cloudy
4:20 PM 60.8 °F 51.8 °F 72% 30.21 in 6.2 mi NNE 17.3 mph - N/A   Mostly Cloudy
4:50 PM 59.0 °F 50.0 °F 72% 30.21 in 6.2 mi NE 17.3 mph - N/A   Mostly Cloudy
5:00 PM 60 °F 51 °F 63% 30.24 in 6 mi NE 17.3 mph - -   Mostly Cloudy
5:20 PM 59.0 °F 50.0 °F 72% 30.21 in 6.2 mi NE 17.3 mph - N/A   Mostly Cloudy
5:50 PM 60.8 °F 51.8 °F 72% 30.24 in 6.2 mi NE 11.5 mph - N/A   Mostly Cloudy
6:20 PM 60.8 °F 51.8 °F 72% 30.24 in 6.2 mi NNE 13.8 mph - N/A   Mostly Cloudy
7:20 PM 60.8 °F 51.8 °F 72% 30.27 in 6.2 mi NE 10.4 mph - N/A   Mostly Cloudy
7:50 PM 60.8 °F 51.8 °F 72% 30.27 in 6.2 mi NNE 11.5 mph - N/A   Mostly Cloudy
8:00 PM 60 °F 52 °F 68% 30.28 in 6 mi NNE 11.5 mph - -   Mostly Cloudy
8:20 PM 60.8 °F 51.8 °F 72% 30.27 in 6.2 mi NE 9.2 mph - N/A   Mostly Cloudy
8:50 PM 60.8 °F 51.8 °F 72% 30.27 in 6.2 mi NE 11.5 mph - N/A   Mostly Cloudy
9:20 PM 60.8 °F 50.0 °F 68% 30.27 in 6.2 mi NE 12.7 mph - N/A   Mostly Cloudy
9:50 PM 60.8 °F 50.0 °F 68% 30.27 in 6.2 mi NE 11.5 mph - N/A   Mostly Cloudy
10:20 PM 60.8 °F 50.0 °F 68% 30.27 in 6.2 mi NE 11.5 mph - N/A   Mostly Cloudy
10:50 PM 59.0 °F 50.0 °F 72% 30.27 in 6.2 mi NNE 12.7 mph - N/A   Mostly Cloudy
11:20 PM 59.0 °F 51.8 °F 77% 30.27 in 6.2 mi NNE 11.5 mph - N/A   Mostly Cloudy
11:50 PM 59.0 °F 51.8 °F 77% 30.27 in 6.2 mi NNE 11.5 mph - N/A   Mostly Cloudy